Wind_Speed
8 9 11 11 8 6 7 9 6 5 6 5 4 7 7 9 13 10 6 6 7 8 13 14 13 15 14 12 11 11 12 13 13 14 14 14 15 16 16 17 18 19 23 22 22 23 22 21 21 20 19 17 16 16 15 14 12 11 11 10 9 8 7 6 7 9 11 12 13 10 8 7 7 8 8 9 11 12 12 13 14 14 14 14 14 15
9 10 13 10 7 5 7 13 12 7 6 6 8 10 10 11 11 8 5 5 5 9 13 13 13 13 14 14 12 12 13 14 15 15 16 16 15 15 16 17 17 20 23 23 23 23 24 23 22 22 20 18 17 17 16 15 14 12 11 10 9 7 6 6 6 8 10 12 14 11 8 7 7 6 6 7 7 8 9 9 10 11 12 11 12 13
11 13 12 8 11 13 11 13 13 9 8 9 11 12 12 13 10 6 5 5 6 10 13 12 13 14 15 16 14 13 14 14 16 17 17 17 17 17 16 16 18 20 20 21 23 23 24 24 23 23 22 20 20 19 18 17 15 14 11 10 9 7 7 7 6 7 8 10 13 12 8 7 7 5 5 5 5 5 6 6 7 8 9 9 10 11
10 9 9 9 12 12 9 10 10 10 12 12 13 14 13 12 12 8 6 7 8 10 13 12 12 13 14 15 15 15 14 13 14 16 17 19 19 18 16 16 17 19 22 23 24 24 25 26 25 24 23 22 22 21 20 20 18 15 12 11 9 8 8 8 7 7 8 9 12 12 8 6 7 6 5 5 5 4 4 4 4 4 5 6 6 8
9 3 7 8 9 8 8 9 9 11 13 14 14 14 13 11 11 10 5 6 8 11 13 12 13 16 17 18 18 16 14 13 13 15 18 21 21 19 18 19 17 18 22 25 26 26 26 27 27 25 25 25 24 23 23 22 19 16 13 12 10 9 9 9 9 8 8 8 10 11 7 5 6 6 5 4 3 1 1 2 2 2 2 3 4 5
9 7 9 7 7 8 10 11 11 12 14 14 14 14 13 11 10 10 8 7 10 12 12 12 13 15 17 18 17 15 13 13 13 14 17 20 21 21 21 22 20 20 21 24 27 27 25 28 28 27 27 27 26 26 26 24 21 18 15 13 12 11 10 10 10 9 8 7 9 10 7 4 5 5 4 2 1 0 1 1 2 2 2 3 3 4
6 6 9 7 7 9 10 12 12 11 13 14 11 11 11 11 11 12 11 11 14 12 9 10 11 12 12 12 13 13 13 13 13 13 14 16 18 18 18 18 18 19 20 23 25 24 25 29 30 30 30 29 29 29 27 26 23 20 18 15 14 13 12 12 12 10 9 8 8 9 6 4 4 4 3 2 1 1 2 3 3 3 4 4 4 4
6 4 5 8 9 10 11 13 12 11 13 10 5 7 9 12 13 12 13 14 15 14 9 11 14 15 14 11 9 11 12 12 13 13 13 14 15 16 16 14 13 13 15 20 23 24 26 30 32 32 31 31 31 29 29 28 26 23 20 17 16 15 14 14 13 11 10 8 7 8 6 4 3 3 3 2 2 3 3 4 5 6 6 6 6 6
6 6 7 10 11 11 12 10 9 12 13 8 3 6 9 11 12 12 13 14 14 13 13 14 14 13 15 13 9 10 13 13 13 13 13 13 13 13 13 12 13 15 17 18 19 22 24 26 29 30 30 31 32 31 30 30 28 26 22 18 17 16 15 14 14 12 10 8 6 7 6 4 3 3 3 3 2 3 3 4 4 5 5 5 6 6
6 8 8 11 12 12 10 6 6 9 12 9 6 8 10 10 11 12 13 14 13 12 14 15 13 11 11 12 11 11 13 14 13 13 11 11 12 11 11 13 15 17 18 18 18 20 22 23 24 26 28 29 30 31 31 31 30 28 25 20 17 17 15 14 14 12 10 7 6 7 7 5 4 3 3 3 3 3 3 3 2 2 2 2 3 3
6 8 8 10 12 12 9 8 8 9 10 9 9 11 12 11 12 12 13 14 12 11 15 16 14 11 9 10 11 10 9 9 10 12 11 10 11 9 10 12 11 12 15 17 19 21 23 23 24 25 28 29 29 30 31 32 32 30 28 23 19 18 16 15 15 12 9 8 8 8 8 6 5 3 3 3 3 4 3 3 1 1 0 1 0 0
7 9 10 9 10 11 10 12 12 12 12 11 11 12 12 12 12 12 14 13 9 9 13 14 12 12 10 10 9 6 6 6 7 10 10 9 9 8 9 10 10 13 16 16 18 22 23 23 24 25 28 30 31 31 32 32 32 32 31 26 22 20 17 16 15 13 11 10 10 10 8 7 5 4 4 3 3 3 4 3 2 0 2 2 3 3
11 13 11 8 9 9 10 12 12 12 12 12 13 13 11 10 9 9 9 9 9 9 9 7 8 10 11 11 8 6 7 7 7 7 8 10 11 10 9 9 11 14 16 16 19 21 21 21 23 24 27 29 30 31 32 32 32 33 33 29 24 22 19 17 16 13 12 11 11 11 9 8 6 4 4 3 3 3 3 4 3 1 1 2 3 4
12 13 12 10 9 9 9 12 11 10 11 13 15 13 10 8 6 7 7 7 9 9 6 2 4 8 11 9 6 8 7 6 7 8 9 12 14 13 11 8 9 14 17 19 20 21 21 21 23 25 27 28 28 29 29 30 31 33 34 31 27 24 21 19 17 14 13 13 13 12 11 9 7 5 5 4 4 3 3 4 4 3 2 1 1 2
11 10 11 10 8 7 9 11 10 9 10 13 14 13 13 11 8 7 6 6 7 6 5 5 4 7 8 4 6 8 7 5 5 7 9 12 13 14 13 11 11 15 17 18 18 20 21 22 23 24 26 27 29 29 28 28 30 31 33 33 30 26 23 21 19 16 16 15 14 14 13 11 9 8 7 6 4 4 4 5 5 4 4 3 2 1
12 9 8 10 7 6 8 9 9 10 11 12 13 15 15 13 12 10 10 9 8 7 7 8 8 8 5 3 6 7 6 5 5 6 8 11 13 13 13 12 12 11 9 9 10 12 14 15 17 19 21 22 25 27 26 27 29 31 32 34 33 29 26 24 21 19 18 18 17 16 15 13 12 11 9 8 7 6 6 6 6 6 6 6 5 4
11 9 5 6 7 8 9 8 8 10 11 9 10 14 14 11 12 12 12 9 7 8 10 11 13 12 9 7 9 9 7 6 6 7 9 11 12 12 11 11 11 8 6 5 5 6 8 8 9 10 12 14 17 20 23 25 27 29 31 34 35 32 29 27 24 21 20 20 19 18 16 15 15 13 12 11 10 10 9 8 8 8 8 8 8 6
10 12 8 8 10 9 9 11 11 12 13 11 11 10 9 10 11 11 10 7 7 7 9 12 14 14 11 8 10 11 10 9 8 9 10 11 12 12 12 13 13 11 9 7 6 5 7 7 5 3 4 6 8 12 16 21 25 28 31 34 35 34 32 30 26 24 23 23 22 20 19 18 17 16 15 14 13 13 12 11 10 10 9 10 10 10
9 13 14 11 11 9 9 12 14 15 15 16 15 10 8 10 10 11 9 7 8 7 7 11 13 12 12 8 10 12 12 11 11 11 10 9 11 14 14 15 15 13 11 9 7 6 7 8 8 6 5 5 5 6 9 15 21 28 32 35 36 35 34 33 30 28 27 26 25 23 21 20 19 19 18 17 16 16 15 14 13 12 12 12 12 13
7 11 13 10 9 9 9 11 15 16 15 15 17 15 14 13 12 12 11 9 10 8 6 9 10 9 10 7 8 10 12 13 12 11 11 10 12 15 15 15 15 14 13 11 9 7 7 7 8 9 9 7 4 4 5 8 13 19 26 31 35 36 37 36 34 31 30 30 28 26 24 23 22 21 21 20 20 20 18 17 16 16 15 15 14 14
8 11 13 11 10 11 12 13 13 13 12 13 14 15 15 15 14 13 13 15 14 10 6 7 8 9 7 4 5 5 10 13 12 11 12 13 15 15 14 16 16 15 15 13 11 9 8 8 7 6 7 8 8 8 7 7 8 9 14 19 25 30 33 35 35 33 31 31 31 29 27 27 26 25 24 24 23 22 21 20 20 19 18 18 17 16
10 11 13 14 14 15 14 11 10 10 10 10 11 11 11 12 14 12 11 14 15 13 10 8 9 8 3 4 5 6 8 11 11 11 13 13 16 16 14 16 16 16 16 15 14 12 10 10 10 9 7 6 8 11 13 15 16 14 14 15 17 20 23 26 32 35 32 31 31 31 31 30 30 29 28 28 27 25 25 24 23 22 22 21 21 20
11 10 12 15 16 18 16 11 11 12 13 15 16 15 14 13 14 13 10 11 13 14 14 13 11 6 0 1 4 6 8 9 10 12 12 13 17 16 15 17 17 17 17 16 15 15 14 12 12 12 12 9 9 11 13 17 21 23 25 25 23 20 19 22 29 34 35 34 33 33 34 35 34 32 30 30 30 29 28 26 26 26 25 25 24 23
14 11 14 17 17 20 20 16 15 13 14 18 21 19 19 19 19 18 17 15 15 16 15 12 10 5 3 3 4 6 8 9 11 12 13 14 16 16 16 18 18 18 19 19 18 16 16 14 13 14 14 13 13 13 13 15 18 22 25 28 28 28 28 30 31 33 36 37 34 32 33 34 36 35 32 32 32 32 31 29 28 29 28 27 27 26
10 10 12 15 13 14 15 16 17 14 12 15 18 19 20 19 18 18 18 17 17 20 18 14 12 8 4 4 5 7 8 10 11 12 13 15 17 17 18 19 20 21 20 21 20 19 18 16 15 14 14 15 14 14 14 15 16 18 18 20 22 24 27 29 30 30 33 34 33 32 31 32 34 35 34 33 33 34 34 33 32 32 31 28 28 28
9 10 12 12 10 9 10 10 11 11 10 11 14 16 16 14 14 16 17 18 18 20 20 19 18 13 5 3 5 8 10 11 12 13 14 14 17 18 21 21 22 23 22 22 22 21 20 18 17 16 15 15 14 13 13 13 13 14 14 14 15 16 19 22 25 28 30 31 31 32 32 31 32 34 34 33 33 33 33 32 31 32 32 30 30 30
11 13 15 16 16 16 16 16 14 13 14 14 14 14 15 14 14 15 17 20 20 20 22 23 22 18 13 10 8 8 9 11 13 13 12 12 14 17 21 22 21 21 22 22 22 21 20 19 18 16 15 15 15 14 14 13 12 12 12 12 12 12 14 16 19 22 24 26 28 30 30 28 26 28 31 33 32 29 27 27 28 29 30 31 30 31
12 15 16 18 21 22 22 23 21 19 20 20 19 19 20 19 19 18 19 21 19 19 22 22 20 19 18 14 11 9 10 12 13 13 12 13 13 13 16 20 20 19 19 20 21 21 20 20 19 18 17 16 16 16 16 16 16 15 15 14 13 13 13 13 15 16 17 20 22 23 24 24 24 26 29 31 31 26 24 26 28 29 31 30 28 31
12 16 17 17 21 22 21 22 22 21 23 23 22 23 23 24 24 24 25 25 21 22 24 22 21 22 20 15 12 11 11 13 13 13 14 15 14 13 13 16 17 17 16 18 22 22 21 22 21 20 20 20 19 19 19 19 19 19 19 18 17 16 16 15 15 15 15 16 17 18 19 21 23 24 26 28 29 27 26 27 27 26 26 25 25 29
12 15 16 16 19 21 21 22 21 21 23 24 25 25 25 25 26 26 27 27 26 28 30 27 27 28 25 20 17 15 14 14 14 14 16 16 16 15 14 14 14 14 13 16 23 25 23 24 25 24 24 24 24 24 24 24 24 24 23 23 22 22 21 21 21 21 21 21 21 21 21 21 22 22 23 25 26 26 26 27 28 27 27 25 25 27
12 13 12 14 18 20 20 20 22 23 24 25 27 27 26 26 26 27 28 27 27 29 29 28 30 30 26 22 22 21 21 21 19 18 18 19 19 18 17 16 16 15 14 16 23 28 26 26 27 27 27 27 27 27 28 28 28 29 29 29 29 28 27 27 27 28 28 28 28 28 27 26 26 26 27 27 28 29 29 30 31 31 31 30 29 29
12 12 13 15 19 21 19 19 21 22 23 27 28 28 27 27 27 28 28 27 27 27 27 27 29 28 23 22 23 24 24 24 24 22 20 20 21 20 20 19 17 17 17 17 20 26 28 27 28 28 27 26 27 27 29 29 29 29 30 30 31 31 29 28 29 29 30 29 30 31 32 31 31 31 31 31 31 31 31 32 33 34 34 33 33 34
13 14 15 15 19 21 18 17 19 17 16 20 23 23 25 27 29 29 28 28 27 27 28 28 28 25 22 21 22 22 21 21 22 22 22 22 21 20 20 19 18 19 20 18 16 20 26 28 28 28 27 26 26 27 27 27 26 26 26 26 27 28 27 26 26 26 28 28 29 31 32 32 32 31 31 31 31 32 31 31 32 33 33 33 33 34
15 16 17 17 19 20 18 17 17 14 13 15 14 14 16 19 22 25 25 26 25 25 27 28 27 25 23 21 19 19 20 20 19 19 19 18 17 16 17 18 18 19 21 19 15 16 23 30 30 29 27 26 26 26 25 25 25 25 24 24 24 24 24 23 23 24 25 26 26 28 29 30 30 30 30 31 31 32 31 30 30 31 31 32 32 33
17 17 18 18 19 21 20 17 15 14 15 15 12 11 11 12 14 17 19 20 19 20 22 24 24 23 22 21 19 19 20 21 21 20 19 19 19 19 20 19 18 20 22 19 16 17 22 29 31 29 27 26 26 25 24 25 26 25 25 25 25 24 24 25 25 25 25 25 26 26 27 28 28 29 29 30 31 31 31 30 30 31 31 32 33 33
19 18 18 19 20 20 19 17 15 14 16 15 12 11 12 11 11 13 17 17 17 17 18 18 18 17 16 17 16 15 15 16 17 16 14 16 19 21 21 20 19 19 18 15 15 16 20 26 30 29 28 27 26 26 26 27 27 27 26 26 26 26 26 27 27 27 27 27 27 27 28 28 28 28 29 29 30 31 31 31 31 31 32 32 33 34
19 19 18 19 19 18 19 20 19 18 18 17 16 14 15 15 13 13 15 16 15 15 14 13 13 13 13 13 13 12 11 11 12 12 11 12 15 15 15 18 20 17 12 10 12 13 15 21 29 30 28 27 27 27 28 28 28 28 27 27 28 27 28 28 29 28 28 27 28 28 28 29 29 30 31 31 31 31 32 32 32 32 32 33 33 34
18 19 18 19 18 17 18 18 16 15 14 13 14 16 18 18 14 11 12 14 14 12 9 9 11 12 11 11 11 11 11 11 10 12 12 11 9 10 11 15 17 14 11 10 11 12 12 18 26 29 28 28 28 28 28 29 29 29 29 30 30 30 30 30 29 29 28 28 28 28 28 29 29 30 31 31 32 33 33 34 34 35 35 35 35 35
17 18 17 19 19 18 18 16 13 13 12 8 7 9 12 13 12 10 11 13 13 10 7 6 7 9 9 9 9 10 11 12 11 12 15 11 4 5 8 10 11 12 11 10 11 12 12 17 25 28 28 29 29 29 30 30 31 32 33 33 34 33 33 32 30 30 29 29 29 29 29 30 30 31 31 32 32 33 34 35 35 36 37 37 37 36
15 16 17 20 21 19 19 18 17 15 13 9 6 5 7 9 10 10 9 8 9 8 7 7 7 7 7 9 10 11 11 11 11 13 19 17 8 6 7 8 10 11 12 11 12 15 18 21 25 28 28 29 29 30 31 32 33 35 36 37 37 37 36 34 32 32 32 33 33 33 33 34 35 35 35 35 35 36 36 36 36 37 38 38 39 38
13 15 16 18 20 20 20 20 19 16 13 13 11 9 10 11 10 11 10 10 10 8 8 9 9 9 8 9 10 12 12 11 10 11 15 15 12 10 9 10 11 12 13 13 15 21 26 27 27 28 29 29 30 31 33 34 36 37 38 39 39 40 39 38 36 36 36 37 37 37 38 38 39 39 39 39 39 39 39 39 39 38 39 40 41 40
12 13 15 17 18 19 18 19 19 16 13 13 11 9 10 11 10 11 11 10 10 10 9 11 12 12 11 12 13 14 14 13 12 12 13 14 15 14 14 14 14 15 17 17 19 24 29 30 29 31 31 31 32 34 36 37 38 39 40 41 42 42 42 42 41 40 39 39 40 41 41 41 41 42 42 42 42 42 42 42 41 41 41 41 41 41
11 12 15 16 16 17 17 16 15 12 10 9 8 7 7 8 8 9 11 10 11 13 13 13 14 14 13 14 15 17 17 16 16 15 15 16 17 17 17 17 17 19 24 28 28 28 29 29 30 31 32 33 35 36 37 39 39 40 40 41 41 42 43 43 42 42 41 42 42 43 43 44 44 45 45 45 45 44 44 43 43 43 42 41 41 43
11 12 14 13 11 12 15 14 10 9 9 9 9 8 8 9 11 12 13 14 14 14 16 17 17 17 17 17 18 19 20 21 21 21 20 19 20 20 21 21 20 22 28 32 32 31 32 33 33 34 35 36 37 38 39 39 39 40 40 40 40 41 42 42 42 42 43 45 46 46 47 46 46 47 47 47 47 46 45 45 45 44 43 42 42 42
9 10 11 12 10 10 14 15 13 15 16 15 14 13 11 13 14 14 16 18 18 17 18 18 18 18 19 19 20 20 21 21 22 22 22 22 23 25 27 28 27 26 27 28 28 30 32 32 32 35 38 39 39 40 40 40 40 42 42 42 42 43 43 44 43 43 44 45 46 46 46 45 45 45 46 46 46 46 46 44 42 42 42 40 39 38
9 10 9 11 12 14 16 17 16 17 16 15 15 15 15 16 17 18 19 20 21 20 19 19 20 20 19 20 22 23 23 23 23 23 24 24 25 26 28 29 28 26 25 25 24 25 25 25 28 33 37 37 37 38 40 41 41 42 42 42 42 43 43 43 44 45 44 44 43 42 42 42 43 43 43 44 43 43 42 39 37 38 39 37 35 34
12 14 11 10 12 15 16 15 14 14 15 16 17 17 17 18 18 18 19 20 20 20 19 19 20 20 20 22 24 25 25 26 25 26 26 27 27 27 26 26 26 25 25 26 25 26 27 28 31 35 36 36 36 37 38 39 38 38 39 39 40 41 41 42 44 45 43 42 41 40 40 41 41 41 40 39 38 38 38 36 35 36 36 34 32 31
12 14 12 11 13 16 16 16 16 17 17 17 17 17 17 18 18 19 19 19 19 20 20 21 22 23 23 24 24 25 27 27 26 26 26 26 27 27 26 26 26 26 26 25 24 28 31 33 34 35 36 36 36 35 35 35 35 35 36 37 38 39 41 42 43 43 42 41 41 40 40 39 40 40 38 37 37 37 37 36 35 34 32 30 28 28
12 13 13 12 13 15 15 14 15 17 17 15 16 18 19 21 21 21 21 22 22 23 24 23 23 24 24 25 26 27 28 28 27 27 28 28 27 27 27 27 27 28 28 27 27 30 33 34 33 34 34 34 34 33 33 34 34 35 37 36 36 38 40 42 42 41 40 40 40 39 39 39 40 40 39 39 38 37 35 34 33 30 28 26 25 25
12 12 12 11 12 14 14 14 16 19 19 18 20 22 24 24 25 26 27 28 28 28 28 27 26 27 28 29 29 30 31 32 31 30 30 30 28 28 29 29 29 30 30 29 30 31 32 32 32 33 34 34 33 34 33 33 34 36 36 34 35 38 39 39 39 39 38 38 39 39 39 40 40 40 39 38 36 33 31 30 28 25 24 25 25 25
12 12 12 12 14 16 17 18 20 21 21 22 23 26 27 28 29 30 30 30 30 30 30 30 31 32 33 33 33 33 35 35 35 34 34 32 30 30 30 29 29 30 29 29 30 31 31 31 32 32 33 33 33 33 32 32 33 34 34 34 35 36 36 36 36 37 37 38 38 37 36 35 35 34 32 30 28 26 25 25 25 24 24 23 22 22
Wind_Direction
223 229 231 233 228 211 207 233 274 320 313 304 257 255 251 230 225 209 149 158 209 227 232 224 226 240 238 231 225 224 224 220 219 215 217 219 217 221 216 220 231 224 217 213 211 218 220 223 227 229 232 236 241 246 249 251 252 259 271 282 296 307 316 325 333 342 346 347 346 334 313 299 281 270 266 258 256 255 255 258 259 260 259 255 250 246
227 235 236 238 241 232 222 232 246 271 280 264 254 255 248 241 240 226 189 172 205 234 241 232 232 245 242 234 231 229 232 230 225 221 221 222 219 221 217 213 218 224 224 214 208 215 222 225 228 230 233 239 244 249 251 253 254 256 264 275 289 296 297 304 316 332 340 348 349 338 323 315 298 274 267 259 258 257 254 255 256 256 256 254 251 246
232 241 233 225 240 242 244 242 242 255 261 249 248 253 248 241 235 209 192 205 218 237 248 239 232 242 244 239 232 227 234 236 229 225 224 223 220 219 215 210 213 224 229 216 208 216 224 227 229 231 234 239 244 248 251 252 251 251 257 267 278 284 281 285 296 316 333 345 349 341 328 321 311 283 270 265 260 257 248 245 245 247 249 248 246 243
238 239 204 201 238 247 251 249 243 243 246 245 245 249 247 241 240 229 201 217 236 244 253 256 245 245 248 241 231 230 236 236 229 225 223 219 217 216 214 214 214 219 224 219 211 215 224 227 228 230 232 238 243 247 250 251 250 249 252 258 267 273 271 276 285 301 321 336 345 340 326 319 318 297 275 264 255 245 235 233 233 237 242 245 245 243
251 223 175 206 247 251 244 241 238 243 243 239 239 247 249 243 251 256 230 215 241 244 245 255 256 249 246 240 233 230 230 229 226 223 221 215 211 210 208 209 210 215 225 224 213 213 221 224 226 230 233 238 242 246 249 250 250 249 246 248 256 264 266 270 279 290 307 326 340 338 323 315 322 309 283 260 244 228 222 216 211 220 230 236 243 245
245 222 223 245 256 242 242 241 236 240 247 244 234 240 252 251 250 253 240 225 244 247 232 232 250 253 246 240 234 225 217 222 224 219 221 216 211 213 211 211 212 213 223 224 214 212 217 222 225 227 232 237 240 244 248 247 247 247 241 240 249 259 261 266 273 282 295 314 334 335 320 315 330 322 303 285 288 174 224 237 229 234 241 243 245 247
243 227 236 237 235 236 238 243 239 233 248 255 238 228 244 250 246 245 243 239 248 256 228 216 248 265 253 236 227 219 212 217 218 214 215 212 211 215 215 218 223 224 229 229 221 213 212 219 224 225 228 234 239 243 246 246 245 243 239 237 245 255 259 264 270 277 287 303 327 330 317 316 338 338 331 323 318 261 247 261 265 266 268 265 260 258
223 225 232 217 224 235 236 243 239 226 243 258 241 220 235 246 244 241 244 244 253 265 252 228 244 261 259 244 220 211 212 215 213 209 212 211 211 215 216 219 223 228 236 235 230 224 219 219 222 226 228 230 234 240 244 245 244 241 239 239 243 251 257 263 266 271 281 295 316 320 313 315 327 337 343 329 283 262 260 267 272 276 276 274 270 265
214 228 230 220 223 232 237 248 236 222 239 262 274 240 242 249 245 241 246 248 255 263 258 242 237 251 259 249 220 204 217 227 218 208 210 212 211 212 214 215 214 222 233 235 233 232 230 227 226 228 230 230 231 233 237 242 242 239 237 237 240 245 250 255 260 265 276 285 299 302 300 302 303 308 326 326 299 278 272 276 280 279 278 275 271 266
223 222 221 219 226 235 239 250 232 219 236 260 283 257 246 249 245 242 245 249 253 252 253 250 238 245 259 247 228 214 226 240 225 204 205 212 213 211 214 216 218 227 236 238 237 235 235 235 235 236 237 237 235 234 234 236 237 236 235 234 234 239 241 247 255 262 271 273 274 285 292 295 291 278 284 303 313 309 297 293 299 294 283 273 270 266
224 219 222 221 229 240 247 249 241 234 242 259 270 253 243 245 242 242 245 247 253 246 245 247 239 239 254 250 238 217 217 236 210 192 200 209 208 211 221 225 228 235 238 240 242 242 240 239 240 244 245 245 243 241 239 235 232 232 233 231 229 232 235 240 249 256 260 257 254 267 280 286 285 271 266 279 299 314 315 306 315 356 58 74 76 326
232 227 223 221 230 239 249 252 246 242 244 250 251 243 240 240 235 238 242 239 246 253 250 248 237 234 245 254 246 199 186 201 184 188 200 201 202 211 223 231 236 240 243 245 246 247 247 247 247 249 251 251 249 247 245 242 235 229 228 228 224 226 231 237 245 251 251 247 246 254 265 276 283 277 267 269 278 302 313 306 301 91 92 83 81 78
237 234 221 221 233 236 242 243 235 227 232 240 241 239 240 239 231 234 239 232 238 252 255 248 228 226 245 259 245 188 182 191 190 200 203 202 216 227 230 238 241 241 241 242 246 249 251 253 253 254 255 256 255 251 247 244 239 231 225 223 221 223 229 236 240 241 240 238 238 244 252 262 272 275 270 268 268 280 299 301 288 250 134 94 83 80
237 228 215 222 232 228 234 239 231 222 229 238 238 237 238 242 240 239 240 237 240 241 229 225 241 243 256 260 212 176 179 188 204 217 218 220 227 229 226 233 241 240 240 242 248 254 256 258 259 257 256 256 255 254 248 241 238 234 225 218 215 218 225 232 234 232 231 230 232 239 244 249 257 267 269 269 270 273 281 289 288 274 260 248 63 69
255 240 212 217 225 219 231 243 249 252 248 244 243 241 241 247 255 257 262 266 268 264 224 199 228 252 252 224 164 176 194 197 206 220 224 222 220 220 220 225 234 236 239 244 249 254 257 260 261 259 257 255 253 252 247 238 234 233 226 216 211 214 222 228 229 224 222 223 229 236 239 242 248 258 268 272 272 266 265 276 284 282 276 271 276 306
265 265 199 195 211 222 238 247 255 262 256 248 246 242 240 245 254 265 277 279 289 297 258 221 228 246 245 185 167 178 185 186 201 210 208 206 207 213 219 221 225 226 233 244 252 259 263 265 267 265 261 257 252 247 240 232 230 230 224 214 209 212 218 224 224 219 217 221 228 234 236 241 246 252 262 268 268 262 260 268 279 284 285 282 278 278
261 257 173 184 231 231 238 250 249 250 257 262 251 245 246 252 257 264 270 262 258 270 259 243 244 247 246 230 206 194 189 196 204 190 186 198 206 211 217 218 218 222 241 265 276 280 281 283 284 277 268 263 254 242 234 229 228 226 221 213 210 212 216 220 219 216 217 222 228 234 237 242 246 248 254 262 268 269 267 266 271 278 283 285 284 281
263 261 245 239 247 233 236 256 253 245 253 262 258 261 267 262 259 264 269 261 250 258 255 249 251 251 250 233 197 197 206 203 194 184 186 201 210 219 229 228 227 236 253 272 283 292 293 290 292 301 311 300 276 253 238 230 227 223 217 211 209 211 214 217 216 216 220 224 228 235 239 242 245 248 252 258 262 267 269 269 270 271 273 275 280 281
261 268 263 246 241 243 247 256 255 247 243 248 258 273 275 261 258 254 256 264 263 266 263 259 259 256 255 235 189 199 212 198 189 191 189 194 211 229 237 232 232 241 254 270 278 294 299 289 281 281 298 325 316 280 248 233 227 221 213 208 207 209 213 216 216 217 219 222 226 233 238 241 243 245 250 255 259 262 265 269 272 273 271 269 273 277
257 266 266 249 237 247 250 247 252 249 238 240 254 260 256 256 263 261 258 262 263 267 272 271 268 259 258 240 193 205 212 195 190 195 185 185 217 237 238 231 236 246 257 268 274 283 293 293 291 277 262 262 272 265 241 225 221 218 214 212 210 212 215 217 219 219 219 220 226 232 233 236 240 241 244 248 252 257 260 264 268 271 273 271 270 271
260 261 264 259 245 244 248 249 254 257 247 239 245 249 248 248 254 263 263 259 261 269 274 273 268 263 256 218 194 222 214 193 190 194 184 199 236 251 242 232 237 248 258 266 268 270 273 279 292 286 259 248 249 258 263 252 235 223 221 221 220 222 226 227 227 226 223 223 228 233 233 233 235 236 238 240 244 250 255 258 261 264 267 269 269 268
245 249 260 262 254 248 252 254 255 258 258 256 258 260 259 253 255 263 263 259 262 266 271 275 275 276 264 211 233 247 214 193 195 192 182 208 246 259 251 241 240 247 256 262 264 265 261 259 268 275 270 255 247 256 267 271 267 257 250 251 246 239 239 241 238 234 233 233 233 235 239 239 237 235 235 237 239 241 246 250 254 256 259 261 264 265
234 237 259 262 259 259 262 264 256 254 258 263 266 267 267 265 264 265 268 274 276 273 273 276 275 277 347 200 234 218 200 192 193 186 182 216 249 259 255 247 242 245 252 256 260 261 257 252 252 258 262 260 252 252 256 261 262 257 254 258 258 248 245 252 248 240 239 243 241 239 241 242 242 241 240 240 241 240 241 244 247 250 252 255 258 261
244 241 258 263 265 264 262 257 252 255 262 261 259 259 260 261 263 265 271 281 282 274 270 273 273 254 178 168 180 189 196 195 195 190 193 227 257 265 259 251 246 246 249 251 254 253 250 247 243 242 245 246 246 248 247 249 253 253 252 252 251 248 245 249 251 245 242 245 250 251 250 247 244 244 244 243 244 245 244 244 245 248 250 252 256 260
248 241 252 261 266 264 255 245 240 243 252 258 258 254 253 261 265 265 270 274 271 266 264 267 270 259 217 194 192 198 205 204 205 199 204 237 264 266 258 255 250 248 247 247 247 246 244 242 237 234 234 234 234 235 237 240 243 247 250 249 248 248 245 244 246 247 245 246 252 257 257 252 246 244 246 247 249 251 250 248 248 250 252 254 260 265
261 254 255 262 262 259 256 251 251 255 260 267 269 256 248 258 266 266 270 267 261 265 265 262 266 269 263 240 228 229 228 220 215 206 208 236 256 255 255 255 251 248 247 244 244 242 241 241 238 235 234 234 234 234 235 237 239 242 246 247 248 248 247 244 243 244 245 247 251 255 255 250 242 238 242 247 252 257 259 256 252 253 255 257 260 264
256 256 255 257 259 262 268 276 284 290 281 276 277 265 251 254 260 263 267 264 264 273 270 263 267 272 268 255 242 235 230 222 218 214 216 227 233 238 248 249 243 242 242 242 242 240 240 242 242 242 242 242 244 245 245 245 245 246 245 244 247 247 246 246 244 244 245 246 249 252 253 249 243 240 243 249 253 255 259 260 257 255 253 253 255 259
250 255 254 254 258 262 268 275 279 283 280 275 274 268 261 261 263 261 259 261 270 277 270 265 271 274 271 265 253 241 237 234 231 230 230 227 219 220 233 236 237 242 247 248 247 244 244 246 247 251 254 255 256 257 257 256 255 256 256 253 251 249 248 247 248 248 248 247 247 248 250 250 248 246 248 255 262 263 262 263 260 254 249 247 249 253
250 256 257 257 261 262 264 270 272 272 273 272 267 265 264 265 265 261 259 260 264 266 267 272 278 279 278 278 271 263 256 248 243 241 239 237 231 226 231 238 242 249 255 258 258 255 253 254 256 258 262 265 266 267 267 266 265 266 268 268 265 263 262 259 258 258 258 258 257 256 258 258 255 253 254 260 266 268 268 270 270 269 265 262 258 257
250 257 260 261 266 267 266 267 269 268 270 269 264 261 262 263 261 260 261 261 261 262 265 271 275 274 273 272 269 267 266 261 254 248 242 238 236 234 238 245 250 251 247 251 262 266 266 265 265 265 267 270 271 273 273 272 273 273 274 275 276 277 276 273 271 273 274 274 272 271 270 268 266 266 267 267 267 266 267 270 273 276 278 276 270 267
249 258 262 266 271 272 269 269 269 268 269 268 264 261 260 260 260 260 260 261 262 263 265 269 271 270 270 269 268 266 267 267 263 256 247 241 237 238 244 247 251 251 237 237 259 270 273 273 272 271 272 272 272 273 273 274 275 276 276 277 278 279 280 278 276 277 279 279 278 278 277 275 273 272 272 272 272 270 269 269 270 270 272 272 271 270
251 262 269 272 271 269 270 271 270 272 273 268 264 261 258 258 259 261 260 260 261 264 267 268 268 270 273 275 274 270 267 264 260 255 250 245 243 246 248 246 246 246 237 234 255 268 272 274 274 273 273 272 271 270 270 272 274 275 276 276 275 275 277 276 275 276 278 279 279 279 279 278 277 276 274 274 273 271 269 268 269 270 270 270 271 271
253 263 269 271 268 267 270 271 273 283 283 268 261 260 259 258 259 259 260 260 261 262 264 265 268 274 277 275 273 270 265 262 259 256 253 253 252 249 245 244 246 243 234 230 241 258 267 272 273 272 270 267 266 266 267 269 270 271 272 272 271 272 274 275 274 273 274 276 276 276 276 277 278 277 276 275 274 273 271 270 269 270 270 271 272 272
256 261 266 267 267 269 273 274 275 275 265 260 263 263 260 258 257 257 258 261 261 260 260 262 267 270 270 269 271 273 270 266 262 258 253 251 250 246 242 245 246 235 224 225 233 249 264 270 271 270 267 263 262 263 263 263 263 263 265 265 267 269 272 274 275 274 273 272 271 271 271 273 275 275 275 275 275 275 275 274 273 273 274 275 275 274
258 260 262 263 265 270 272 270 266 257 252 258 265 262 256 255 256 259 261 261 262 261 260 261 263 265 266 268 269 269 267 263 261 261 258 256 255 252 249 248 241 229 224 231 243 253 263 268 269 267 262 259 259 258 255 255 256 258 260 263 267 270 273 276 278 277 276 273 271 270 268 268 268 269 270 271 272 273 274 275 275 275 276 276 276 276
254 256 259 259 260 265 264 255 251 259 262 260 258 261 262 260 264 270 269 266 261 259 262 266 268 269 270 270 272 270 267 263 263 263 261 257 254 252 250 243 230 225 227 234 246 256 261 262 261 261 259 256 256 255 253 254 256 258 261 265 269 272 275 277 278 278 277 275 273 272 272 271 271 270 270 271 271 272 273 274 274 274 275 275 276 276
249 251 254 256 255 257 258 255 257 265 267 259 255 257 253 252 260 269 272 271 264 259 265 270 270 271 271 273 279 280 276 268 260 255 252 245 234 230 230 223 216 221 235 240 246 257 261 255 254 256 258 256 256 255 256 259 262 264 267 270 272 274 275 275 275 273 272 273 273 274 274 275 275 275 275 275 276 276 277 277 276 276 275 275 275 275
244 244 247 252 253 253 256 260 261 262 264 258 252 251 249 249 255 264 278 278 264 257 269 275 270 270 270 270 273 276 278 275 262 251 252 253 240 223 213 209 215 232 250 251 253 260 259 252 251 254 258 257 257 257 258 261 266 269 272 273 273 274 274 272 271 269 268 268 268 270 273 274 275 277 277 278 279 279 279 279 279 278 277 277 276 276
243 242 242 247 250 249 251 255 255 257 266 269 258 256 256 253 254 268 285 275 250 242 261 270 269 274 274 272 277 280 278 275 266 238 220 210 219 249 230 217 225 241 247 249 258 259 255 254 253 254 256 257 257 260 262 265 270 272 274 275 274 274 273 271 269 267 264 264 264 266 269 271 273 275 277 280 281 280 279 279 278 278 277 277 277 276
239 237 238 242 246 246 248 253 256 257 262 267 266 265 262 261 263 273 283 267 243 247 263 249 237 251 269 275 282 283 276 276 283 258 229 220 235 274 260 243 240 246 251 256 260 258 258 260 259 257 258 260 262 265 268 271 275 276 277 276 275 274 273 272 270 267 264 263 264 265 268 271 273 275 276 279 281 281 281 280 278 277 276 276 275 275
237 235 238 243 246 246 245 250 256 258 260 264 269 273 273 274 271 264 264 262 258 270 288 276 259 257 267 276 277 277 274 272 279 273 255 250 258 263 259 258 258 258 258 259 261 260 259 261 263 263 265 268 271 274 276 277 278 278 278 277 276 275 274 273 272 270 267 266 267 268 270 273 275 277 278 279 281 282 282 280 278 276 275 274 274 274
244 239 237 238 244 250 252 255 260 260 258 262 273 283 277 272 268 262 262 267 270 278 291 291 283 278 278 280 275 270 272 272 270 271 270 267 265 263 261 262 264 264 259 257 262 264 262 263 266 267 270 273 275 276 277 276 275 275 276 276 276 275 274 274 273 271 270 270 271 271 272 274 276 279 280 280 281 281 280 279 278 276 274 273 273 271
257 254 249 242 243 252 257 257 260 263 262 268 281 291 272 258 269 280 281 284 290 291 290 287 285 282 278 278 273 268 268 270 270 271 272 269 268 271 270 268 271 271 264 260 262 264 265 267 270 271 273 275 275 274 274 273 273 274 274 275 275 275 275 274 273 271 271 273 273 273 274 276 278 280 281 281 281 279 277 276 275 274 273 273 270 268
261 258 263 262 255 253 252 251 258 274 288 299 300 295 280 267 276 289 290 288 289 288 285 285 283 279 278 278 277 274 272 271 269 270 271 270 269 269 267 266 271 276 272 268 268 268 267 269 270 271 271 271 271 272 273 273 274 275 275 276 276 276 276 275 274 273 273 273 273 274 274 276 278 279 280 280 279 277 275 274 273 272 272 271 269 267
260 259 273 279 273 265 264 269 284 292 294 297 294 290 289 285 286 292 291 288 288 286 285 285 282 278 279 279 279 277 276 276 275 272 271 271 270 268 269 270 273 277 277 277 277 276 275 274 273 272 272 272 273 274 275 275 275 275 276 277 277 277 278 278 277 276 274 274 274 274 275 276 276 275 275 275 274 274 274 273 272 272 272 271 269 266
266 268 277 283 281 281 279 279 286 289 288 289 290 291 293 291 291 293 289 286 287 286 285 285 284 283 282 282 281 280 278 278 278 277 276 275 273 273 274 275 276 278 279 280 280 279 277 276 275 275 276 277 277 277 277 277 277 277 277 277 278 279 280 280 279 278 276 275 275 276 276 275 274 272 270 270 271 272 271 269 269 271 272 270 268 264
271 267 265 274 282 284 282 280 283 287 287 289 292 292 292 290 290 290 286 283 283 281 279 280 283 284 284 283 282 282 281 280 279 278 277 276 274 274 274 275 276 275 275 275 276 275 273 273 275 276 276 276 275 276 277 277 277 277 278 279 280 281 281 280 278 278 277 277 277 276 276 275 273 270 269 269 268 267 267 269 270 269 266 264 264 263
280 278 276 278 277 276 278 282 286 286 285 287 288 288 290 291 290 287 285 283 282 282 281 281 282 283 283 282 280 280 280 279 278 278 277 276 275 275 274 275 276 274 272 272 273 273 273 273 273 273 272 273 275 276 276 277 278 278 278 278 278 278 277 276 276 277 278 278 277 276 275 273 272 271 270 268 265 265 267 269 267 262 259 260 261 260
278 282 283 284 281 278 280 286 289 286 284 287 289 288 288 289 289 289 287 284 283 284 284 284 283 282 281 280 279 278 277 276 275 275 276 275 275 273 272 271 270 269 269 270 271 271 273 273 272 272 272 273 275 276 276 278 279 278 277 275 274 273 273 274 276 277 277 276 276 275 274 273 271 271 270 267 266 266 266 264 259 255 254 254 250 247
276 279 285 291 290 285 284 289 295 295 294 293 291 288 287 287 288 287 286 285 285 284 284 283 282 279 278 278 277 277 276 275 274 273 271 271 271 270 269 268 267 268 269 269 269 270 270 271 272 273 273 274 275 276 277 277 277 275 274 273 272 272 273 275 277 277 277 276 275 274 274 272 271 269 268 266 266 264 259 254 250 248 247 241 233 228
274 281 289 291 289 287 288 292 295 295 294 293 290 288 288 289 288 286 285 285 284 281 279 279 279 277 277 277 276 276 276 276 275 273 271 269 268 268 269 270 270 270 269 269 269 270 271 272 273 274 275 276 277 276 277 276 275 273 273 272 271 273 275 278 278 277 277 277 276 275 273 271 269 265 262 258 255 249 245 244 242 238 232 226 218 213
Height
3104 3103 3102 3101 3100 3099 3099 3098 3098 3098 3098 3098 3098 3098 3097 3096 3096 3095 3097 3100 3102 3102 3101 3101 3102 3102 3102 3103 3105 3107 3108 3109 3109 3110 3111 3112 3112 3111 3112 3111 3109 3109 3111 3112 3114 3115 3116 3118 3119 3121 3123 3124 3125 3125 3126 3127 3128 3128 3128 3128 3128 3127 3127 3127 3127 3126 3126 3126 3125 3124 3124 3123 3122 3122 3121 3122 3122 3122 3122 3122 3122 3123 3123 3124 3125 3125
3102 3101 3100 3099 3098 3097 3098 3098 3099 3099 3100 3100 3100 3099 3098 3096 3095 3096 3097 3099 3102 3102 3101 3100 3101 3102 3102 3103 3104 3105 3106 3107 3107 3108 3109 3110 3111 3111 3112 3112 3110 3107 3109 3111 3112 3114 3115 3116 3118 3120 3122 3123 3123 3124 3125 3126 3126 3127 3127 3127 3127 3127 3126 3126 3126 3126 3126 3125 3125 3124 3123 3122 3122 3121 3121 3121 3121 3121 3121 3121 3121 3121 3122 3122 3123 3123
3101 3099 3098 3098 3097 3097 3098 3099 3099 3100 3100 3100 3100 3099 3097 3096 3095 3096 3098 3100 3102 3102 3100 3099 3100 3101 3101 3102 3102 3103 3104 3105 3106 3106 3107 3108 3110 3111 3111 3112 3110 3107 3108 3109 3110 3113 3114 3115 3117 3119 3120 3121 3122 3123 3124 3124 3125 3125 3126 3126 3126 3126 3126 3126 3126 3125 3125 3125 3124 3124 3123 3122 3122 3121 3121 3121 3121 3121 3121 3121 3121 3121 3121 3121 3121 3121
3098 3096 3096 3096 3097 3098 3099 3099 3099 3100 3100 3100 3099 3097 3096 3095 3095 3095 3098 3100 3101 3101 3100 3099 3099 3100 3100 3100 3101 3101 3102 3103 3103 3104 3105 3106 3108 3109 3110 3111 3110 3109 3108 3108 3110 3112 3114 3114 3116 3117 3119 3120 3121 3121 3122 3123 3124 3124 3125 3125 3125 3126 3126 3125 3125 3125 3125 3124 3124 3124 3123 3122 3122 3121 3121 3121 3121 3120 3120 3120 3120 3120 3120 3120 3120 3120
3096 3095 3095 3095 3097 3098 3099 3098 3099 3099 3098 3097 3097 3096 3095 3095 3096 3096 3097 3099 3100 3099 3099 3099 3098 3098 3098 3097 3097 3099 3100 3101 3101 3102 3103 3104 3105 3107 3108 3108 3109 3109 3107 3107 3109 3110 3111 3113 3114 3116 3117 3118 3119 3120 3121 3122 3123 3123 3124 3124 3124 3125 3125 3125 3125 3125 3124 3124 3124 3123 3123 3122 3122 3121 3121 3121 3120 3120 3120 3120 3120 3120 3119 3119 3119 3119
3095 3094 3095 3096 3097 3098 3098 3098 3098 3098 3097 3095 3095 3096 3095 3096 3096 3097 3098 3098 3098 3097 3097 3099 3097 3093 3093 3094 3095 3097 3098 3099 3100 3100 3101 3102 3103 3104 3105 3105 3106 3107 3106 3106 3107 3107 3109 3112 3113 3114 3115 3116 3117 3118 3119 3120 3121 3122 3122 3123 3123 3124 3124 3124 3124 3124 3124 3124 3123 3123 3123 3122 3121 3121 3121 3120 3120 3120 3120 3120 3120 3120 3120 3119 3119 3119
3093 3093 3094 3096 3097 3097 3097 3097 3096 3096 3096 3094 3093 3095 3096 3096 3096 3097 3097 3097 3096 3094 3094 3097 3096 3091 3090 3091 3093 3095 3096 3097 3098 3099 3100 3101 3102 3103 3104 3105 3105 3105 3105 3105 3104 3104 3107 3109 3111 3112 3113 3114 3115 3116 3117 3119 3120 3121 3121 3121 3122 3123 3123 3124 3124 3124 3124 3123 3123 3122 3122 3122 3121 3121 3121 3120 3120 3120 3120 3120 3120 3120 3120 3119 3119 3119
3093 3093 3094 3095 3096 3096 3096 3095 3095 3095 3095 3093 3092 3094 3095 3095 3095 3095 3096 3095 3094 3093 3092 3094 3095 3092 3089 3090 3092 3094 3095 3096 3097 3098 3099 3100 3101 3102 3104 3105 3105 3105 3104 3104 3103 3103 3105 3107 3109 3110 3111 3113 3113 3114 3116 3117 3118 3119 3120 3120 3121 3122 3122 3123 3123 3123 3123 3123 3123 3122 3122 3122 3121 3121 3121 3120 3120 3120 3120 3120 3120 3119 3119 3119 3119 3118
3093 3093 3094 3094 3095 3094 3094 3093 3093 3094 3094 3092 3092 3094 3094 3094 3094 3094 3095 3094 3094 3094 3091 3091 3092 3090 3087 3089 3091 3093 3094 3094 3095 3097 3098 3099 3100 3102 3103 3103 3104 3103 3103 3103 3103 3104 3105 3106 3107 3108 3109 3111 3111 3112 3113 3114 3116 3118 3118 3119 3119 3120 3121 3121 3122 3122 3122 3122 3122 3122 3122 3122 3121 3121 3121 3121 3120 3120 3120 3120 3119 3119 3118 3118 3118 3118
3093 3093 3093 3093 3093 3093 3092 3093 3092 3093 3093 3093 3093 3093 3094 3094 3094 3094 3093 3093 3093 3092 3090 3089 3090 3089 3087 3087 3089 3091 3092 3093 3093 3095 3097 3098 3100 3101 3101 3101 3101 3101 3102 3103 3103 3103 3104 3105 3106 3107 3107 3109 3109 3111 3111 3112 3114 3116 3117 3118 3118 3119 3120 3120 3121 3121 3121 3121 3121 3122 3122 3121 3121 3121 3121 3121 3121 3120 3120 3120 3119 3119 3118 3118 3117 3117
3091 3091 3091 3091 3091 3091 3092 3092 3092 3092 3092 3092 3093 3092 3093 3093 3093 3093 3092 3092 3092 3089 3087 3087 3088 3089 3086 3085 3087 3089 3090 3091 3092 3094 3096 3097 3099 3099 3099 3099 3100 3101 3101 3101 3101 3101 3102 3103 3104 3105 3105 3106 3107 3108 3109 3110 3112 3113 3115 3116 3117 3117 3118 3119 3119 3120 3120 3120 3121 3121 3121 3121 3120 3120 3120 3120 3120 3120 3120 3120 3120 3119 3118 3118 3117 3117
3091 3090 3090 3090 3090 3090 3091 3090 3090 3091 3091 3092 3092 3091 3091 3091 3091 3091 3090 3091 3090 3085 3083 3084 3086 3088 3086 3084 3085 3087 3090 3091 3092 3093 3095 3096 3097 3097 3097 3098 3099 3098 3099 3100 3099 3099 3100 3101 3102 3103 3103 3103 3104 3105 3107 3108 3109 3110 3112 3114 3115 3115 3116 3117 3118 3118 3119 3119 3120 3120 3121 3120 3120 3120 3120 3120 3120 3120 3120 3120 3120 3119 3119 3118 3118 3117
3089 3089 3088 3089 3089 3089 3089 3089 3088 3089 3090 3090 3089 3089 3090 3088 3088 3088 3087 3087 3086 3083 3082 3083 3085 3086 3084 3083 3085 3087 3089 3091 3091 3093 3094 3095 3095 3095 3096 3097 3096 3096 3097 3097 3097 3097 3098 3099 3099 3100 3100 3100 3101 3102 3103 3104 3106 3107 3109 3111 3113 3114 3115 3116 3117 3117 3117 3118 3119 3119 3120 3120 3120 3119 3119 3119 3119 3119 3119 3119 3119 3119 3119 3119 3118 3118
3086 3085 3086 3087 3087 3088 3088 3087 3086 3087 3089 3088 3087 3089 3089 3087 3088 3088 3084 3082 3082 3081 3083 3085 3085 3085 3083 3083 3084 3086 3088 3089 3090 3091 3092 3092 3093 3094 3095 3095 3095 3095 3095 3095 3095 3095 3096 3096 3097 3097 3097 3097 3098 3098 3099 3100 3102 3104 3106 3109 3111 3112 3113 3114 3115 3116 3116 3117 3118 3118 3119 3119 3119 3119 3119 3119 3119 3119 3119 3119 3119 3119 3119 3119 3118 3118
3084 3082 3083 3085 3086 3086 3087 3086 3086 3086 3087 3086 3086 3087 3087 3085 3086 3085 3082 3080 3080 3080 3082 3085 3085 3083 3082 3082 3084 3085 3086 3087 3088 3089 3090 3091 3092 3092 3093 3093 3093 3093 3093 3093 3094 3094 3094 3094 3094 3094 3094 3094 3094 3094 3095 3097 3098 3101 3103 3106 3108 3110 3111 3112 3113 3114 3115 3116 3117 3117 3117 3118 3118 3118 3118 3118 3118 3118 3118 3118 3118 3118 3118 3118 3118 3118
3084 3081 3081 3084 3085 3085 3086 3086 3086 3086 3085 3085 3085 3084 3084 3084 3085 3083 3082 3082 3082 3082 3082 3083 3083 3081 3081 3082 3084 3084 3085 3086 3087 3088 3089 3089 3090 3091 3091 3091 3091 3092 3092 3092 3092 3092 3092 3092 3091 3090 3090 3090 3090 3090 3091 3093 3095 3097 3100 3103 3105 3107 3108 3110 3111 3112 3113 3114 3115 3115 3116 3117 3117 3118 3118 3118 3118 3118 3118 3118 3118 3118 3118 3118 3118 3118
3084 3081 3081 3083 3084 3084 3085 3085 3085 3085 3084 3083 3083 3082 3083 3084 3084 3083 3082 3082 3083 3083 3080 3079 3079 3079 3080 3081 3082 3084 3085 3086 3087 3088 3088 3088 3089 3089 3089 3090 3090 3091 3091 3091 3091 3091 3090 3090 3089 3088 3087 3087 3087 3088 3089 3090 3092 3095 3097 3100 3103 3104 3106 3108 3109 3110 3111 3112 3113 3114 3115 3115 3116 3116 3117 3117 3117 3117 3117 3117 3117 3117 3117 3117 3117 3117
3084 3082 3081 3083 3082 3082 3083 3083 3084 3084 3083 3082 3082 3082 3082 3083 3082 3082 3081 3080 3081 3080 3077 3077 3077 3077 3079 3079 3080 3083 3084 3084 3086 3087 3087 3087 3088 3088 3088 3089 3089 3089 3090 3090 3090 3090 3089 3089 3088 3087 3086 3086 3086 3086 3087 3088 3090 3092 3094 3097 3100 3102 3103 3105 3107 3108 3109 3110 3111 3112 3113 3113 3114 3114 3115 3115 3115 3115 3115 3116 3116 3116 3116 3116 3116 3116
3084 3082 3080 3080 3081 3081 3082 3082 3082 3081 3081 3081 3081 3081 3082 3082 3081 3081 3080 3080 3080 3078 3075 3075 3075 3075 3076 3077 3078 3081 3082 3083 3085 3086 3086 3087 3086 3086 3087 3087 3088 3088 3088 3089 3089 3089 3089 3088 3088 3087 3086 3086 3086 3086 3087 3088 3089 3091 3092 3094 3097 3099 3101 3102 3104 3105 3106 3107 3109 3110 3111 3111 3112 3112 3113 3113 3113 3113 3114 3114 3114 3114 3114 3115 3115 3115
3083 3082 3079 3079 3081 3081 3080 3081 3079 3079 3079 3080 3080 3080 3081 3081 3079 3079 3079 3079 3078 3076 3075 3075 3073 3073 3075 3075 3076 3079 3080 3082 3083 3084 3086 3085 3084 3084 3085 3086 3086 3087 3087 3088 3088 3088 3088 3088 3087 3087 3086 3086 3086 3087 3087 3088 3089 3091 3092 3094 3096 3097 3098 3099 3101 3102 3103 3105 3106 3107 3108 3109 3109 3110 3110 3111 3111 3111 3112 3112 3112 3112 3112 3113 3113 3113
3082 3082 3079 3078 3079 3079 3078 3078 3078 3077 3078 3078 3078 3078 3078 3078 3078 3078 3077 3077 3076 3074 3074 3074 3072 3072 3073 3074 3075 3077 3079 3080 3082 3083 3084 3083 3082 3083 3084 3084 3085 3085 3086 3086 3087 3087 3087 3087 3087 3086 3086 3086 3086 3087 3087 3088 3089 3091 3092 3093 3095 3096 3096 3097 3098 3100 3101 3102 3104 3105 3106 3106 3106 3107 3107 3108 3108 3109 3109 3110 3110 3110 3110 3110 3111 3111
3081 3081 3079 3078 3077 3076 3076 3076 3076 3077 3077 3077 3076 3076 3076 3077 3077 3076 3074 3074 3075 3073 3073 3073 3071 3070 3072 3074 3076 3078 3078 3079 3081 3082 3083 3082 3081 3082 3082 3083 3084 3084 3084 3085 3085 3085 3086 3086 3086 3086 3086 3085 3085 3086 3086 3087 3088 3090 3091 3092 3093 3093 3094 3095 3096 3097 3099 3101 3102 3104 3104 3104 3104 3104 3104 3105 3106 3106 3106 3107 3107 3108 3108 3108 3108 3108
3078 3079 3078 3077 3075 3074 3074 3074 3074 3075 3076 3077 3076 3076 3076 3077 3077 3076 3073 3074 3074 3073 3073 3072 3070 3069 3072 3074 3076 3077 3078 3079 3080 3081 3081 3080 3080 3080 3081 3081 3082 3082 3083 3083 3083 3084 3084 3084 3084 3085 3085 3084 3084 3085 3085 3086 3087 3088 3089 3090 3091 3092 3093 3093 3094 3096 3097 3099 3100 3101 3102 3103 3103 3102 3102 3103 3104 3104 3104 3104 3104 3105 3105 3105 3106 3106
3077 3079 3078 3076 3074 3072 3072 3073 3072 3073 3075 3075 3074 3075 3076 3075 3076 3076 3074 3075 3074 3072 3073 3072 3069 3069 3071 3074 3076 3076 3077 3078 3079 3080 3080 3079 3079 3079 3079 3080 3080 3081 3081 3082 3082 3082 3082 3083 3083 3083 3083 3083 3083 3084 3084 3085 3086 3086 3086 3087 3088 3090 3091 3091 3092 3093 3094 3095 3097 3098 3098 3099 3100 3100 3101 3101 3102 3102 3102 3102 3102 3103 3103 3103 3103 3103
3076 3077 3076 3074 3072 3070 3069 3069 3069 3071 3072 3073 3072 3073 3073 3073 3074 3074 3074 3075 3073 3071 3073 3071 3068 3068 3071 3072 3074 3075 3076 3077 3078 3078 3078 3077 3078 3078 3078 3078 3079 3079 3079 3080 3080 3080 3081 3081 3081 3082 3082 3082 3082 3082 3082 3083 3083 3084 3084 3084 3085 3086 3087 3088 3089 3090 3091 3093 3094 3094 3094 3094 3096 3097 3098 3098 3099 3099 3099 3099 3100 3101 3101 3102 3102 3102
3075 3076 3075 3073 3071 3069 3067 3066 3067 3069 3071 3071 3070 3070 3071 3072 3073 3074 3074 3074 3070 3069 3071 3069 3066 3068 3070 3071 3073 3074 3075 3076 3076 3076 3076 3075 3076 3076 3076 3076 3077 3077 3077 3078 3078 3078 3079 3079 3080 3080 3080 3080 3081 3081 3081 3081 3082 3082 3082 3083 3083 3084 3085 3085 3086 3087 3088 3089 3090 3090 3090 3090 3090 3091 3093 3095 3095 3095 3095 3096 3096 3097 3099 3100 3099 3099
3075 3075 3074 3073 3071 3068 3067 3066 3067 3069 3069 3069 3069 3069 3070 3071 3072 3073 3073 3071 3069 3068 3067 3066 3066 3068 3069 3070 3071 3072 3073 3074 3074 3075 3075 3075 3074 3074 3074 3074 3075 3075 3075 3075 3076 3076 3077 3077 3077 3078 3078 3079 3079 3079 3080 3080 3081 3081 3081 3082 3082 3083 3083 3084 3084 3085 3085 3086 3087 3087 3087 3087 3086 3086 3088 3091 3091 3091 3090 3091 3092 3093 3094 3095 3094 3094
3073 3072 3072 3072 3070 3069 3068 3067 3068 3069 3068 3067 3068 3068 3069 3069 3070 3071 3070 3069 3071 3069 3063 3063 3066 3067 3067 3069 3070 3070 3072 3072 3072 3073 3074 3075 3074 3073 3072 3072 3072 3073 3073 3073 3073 3074 3074 3075 3075 3076 3076 3076 3077 3077 3078 3078 3079 3079 3080 3080 3081 3081 3082 3082 3083 3083 3084 3084 3085 3085 3085 3085 3085 3085 3086 3087 3088 3087 3086 3086 3087 3088 3087 3087 3088 3089
3071 3070 3069 3070 3068 3067 3068 3067 3067 3067 3066 3066 3066 3067 3068 3068 3068 3068 3068 3068 3070 3068 3063 3063 3066 3065 3065 3068 3069 3069 3070 3070 3070 3071 3072 3073 3073 3072 3071 3071 3071 3071 3072 3071 3071 3071 3072 3072 3073 3073 3074 3074 3075 3075 3076 3076 3076 3077 3078 3078 3079 3079 3080 3080 3081 3081 3082 3082 3083 3083 3084 3084 3084 3084 3085 3085 3085 3084 3084 3082 3082 3082 3081 3082 3084 3084
3068 3067 3067 3067 3066 3065 3065 3065 3065 3065 3065 3064 3064 3064 3065 3066 3066 3066 3065 3065 3067 3065 3063 3064 3064 3062 3063 3065 3066 3068 3068 3067 3068 3069 3070 3071 3071 3070 3070 3070 3070 3070 3071 3069 3068 3069 3069 3070 3070 3071 3071 3072 3073 3073 3073 3074 3074 3075 3075 3076 3076 3076 3077 3078 3078 3079 3079 3080 3080 3081 3081 3081 3082 3082 3082 3083 3083 3083 3082 3081 3081 3080 3079 3080 3081 3082
3065 3065 3065 3065 3064 3063 3063 3063 3063 3063 3063 3062 3061 3061 3062 3063 3063 3063 3062 3063 3063 3062 3062 3063 3061 3059 3060 3062 3063 3064 3065 3065 3066 3066 3067 3068 3068 3067 3067 3067 3068 3068 3069 3068 3066 3065 3066 3066 3067 3068 3069 3069 3070 3070 3070 3071 3071 3071 3072 3073 3073 3074 3074 3074 3075 3076 3076 3076 3077 3077 3078 3078 3079 3079 3079 3080 3080 3080 3080 3079 3079 3079 3078 3078 3079 3079
3064 3063 3064 3064 3062 3060 3061 3062 3061 3061 3060 3058 3057 3058 3059 3060 3060 3060 3060 3060 3060 3060 3060 3060 3057 3056 3058 3060 3060 3060 3062 3062 3062 3063 3064 3064 3064 3065 3065 3065 3065 3065 3065 3066 3064 3063 3063 3063 3063 3065 3066 3067 3067 3067 3067 3068 3068 3068 3068 3069 3070 3070 3071 3071 3071 3072 3072 3072 3073 3073 3073 3074 3074 3075 3075 3076 3076 3076 3076 3076 3076 3076 3076 3076 3076 3076
3063 3062 3063 3063 3060 3057 3059 3060 3059 3058 3057 3054 3054 3055 3056 3057 3057 3057 3057 3057 3058 3058 3058 3056 3054 3054 3056 3057 3056 3057 3058 3058 3059 3060 3061 3061 3061 3061 3062 3062 3063 3062 3062 3062 3063 3061 3060 3059 3060 3061 3063 3064 3064 3064 3064 3064 3065 3065 3065 3066 3066 3067 3067 3068 3068 3069 3069 3069 3069 3069 3069 3070 3070 3070 3070 3071 3071 3072 3072 3073 3073 3072 3072 3072 3073 3073
3061 3061 3061 3061 3059 3056 3057 3058 3057 3056 3053 3050 3052 3053 3053 3054 3054 3054 3054 3054 3055 3055 3054 3053 3052 3052 3052 3053 3053 3054 3055 3055 3056 3056 3056 3056 3057 3057 3058 3060 3059 3058 3057 3058 3060 3059 3057 3056 3057 3058 3060 3060 3060 3061 3062 3061 3062 3062 3062 3063 3063 3064 3064 3065 3065 3066 3066 3067 3067 3066 3066 3066 3066 3066 3066 3066 3067 3067 3067 3068 3068 3068 3068 3068 3068 3069
3059 3060 3059 3059 3058 3055 3055 3057 3055 3050 3048 3049 3051 3051 3050 3050 3051 3051 3051 3051 3051 3051 3050 3049 3049 3049 3050 3050 3050 3051 3051 3052 3052 3051 3052 3053 3054 3054 3055 3056 3055 3054 3053 3054 3055 3055 3053 3053 3054 3055 3056 3057 3057 3058 3059 3058 3059 3059 3059 3060 3060 3061 3061 3062 3062 3062 3063 3063 3063 3063 3063 3063 3063 3063 3063 3063 3063 3063 3063 3063 3064 3064 3064 3064 3064 3064
3057 3058 3057 3057 3056 3054 3053 3053 3050 3046 3046 3049 3049 3048 3048 3049 3049 3049 3048 3048 3048 3048 3047 3047 3047 3047 3048 3048 3047 3047 3047 3048 3048 3048 3049 3049 3050 3050 3051 3052 3052 3051 3051 3050 3050 3050 3050 3050 3051 3052 3052 3054 3054 3055 3055 3055 3055 3056 3057 3057 3058 3058 3058 3059 3059 3059 3059 3059 3059 3059 3059 3059 3059 3059 3059 3060 3060 3060 3060 3060 3060 3060 3060 3060 3060 3060
3055 3055 3055 3054 3053 3052 3050 3048 3046 3045 3046 3047 3047 3046 3046 3046 3047 3047 3046 3045 3045 3044 3044 3045 3045 3046 3046 3046 3045 3045 3044 3044 3045 3046 3045 3044 3045 3045 3046 3047 3047 3047 3048 3047 3047 3047 3047 3047 3047 3048 3049 3050 3051 3051 3052 3052 3052 3053 3053 3054 3054 3055 3055 3055 3056 3056 3056 3055 3055 3055 3055 3055 3055 3054 3055 3055 3055 3055 3055 3055 3056 3056 3056 3056 3056 3056
3052 3052 3053 3052 3051 3050 3049 3046 3045 3044 3043 3043 3043 3043 3042 3044 3045 3045 3045 3044 3043 3042 3042 3043 3043 3044 3044 3044 3043 3043 3042 3042 3043 3044 3042 3042 3042 3042 3042 3043 3044 3045 3046 3046 3045 3045 3045 3044 3044 3045 3046 3047 3048 3048 3048 3049 3049 3049 3050 3050 3051 3051 3052 3052 3052 3052 3052 3052 3052 3051 3051 3051 3051 3050 3050 3050 3051 3051 3051 3051 3051 3051 3051 3052 3052 3052
3050 3050 3051 3050 3048 3048 3048 3045 3043 3042 3041 3041 3041 3040 3041 3043 3043 3044 3045 3042 3040 3040 3040 3040 3041 3042 3041 3041 3041 3041 3041 3041 3041 3040 3039 3039 3040 3040 3040 3041 3043 3044 3043 3043 3043 3043 3042 3041 3041 3042 3043 3043 3044 3044 3044 3045 3045 3045 3046 3046 3046 3047 3048 3048 3048 3049 3049 3048 3048 3048 3048 3047 3047 3047 3047 3047 3047 3047 3047 3047 3047 3047 3047 3047 3047 3047
3047 3047 3048 3047 3046 3046 3046 3043 3042 3041 3040 3039 3039 3040 3040 3041 3041 3044 3043 3039 3037 3038 3037 3037 3038 3038 3039 3039 3039 3039 3039 3040 3039 3038 3037 3037 3038 3039 3039 3040 3041 3041 3041 3041 3041 3040 3038 3038 3038 3039 3039 3039 3040 3040 3041 3041 3041 3041 3041 3042 3042 3042 3043 3043 3044 3044 3044 3044 3044 3044 3043 3043 3042 3042 3042 3042 3042 3042 3042 3042 3042 3042 3042 3042 3042 3043
3045 3045 3045 3045 3043 3043 3043 3041 3040 3040 3038 3038 3038 3038 3038 3039 3041 3041 3040 3037 3036 3037 3037 3036 3036 3036 3036 3037 3037 3037 3038 3038 3037 3036 3035 3036 3036 3037 3038 3038 3038 3038 3038 3039 3038 3035 3034 3035 3035 3035 3036 3036 3036 3036 3036 3037 3037 3037 3037 3037 3037 3037 3038 3039 3039 3039 3039 3039 3039 3039 3038 3038 3038 3037 3037 3037 3037 3037 3037 3037 3037 3037 3037 3037 3037 3037
3043 3043 3042 3042 3041 3041 3040 3040 3039 3038 3036 3036 3036 3037 3037 3038 3039 3037 3035 3035 3035 3035 3035 3036 3035 3035 3034 3034 3034 3034 3034 3034 3034 3034 3034 3034 3034 3034 3034 3034 3034 3034 3034 3033 3032 3031 3031 3032 3032 3031 3032 3032 3032 3032 3032 3033 3033 3033 3033 3032 3032 3033 3033 3034 3034 3034 3033 3033 3033 3033 3033 3033 3033 3032 3032 3032 3032 3031 3031 3031 3031 3031 3031 3031 3031 3031
3042 3041 3040 3039 3040 3039 3039 3038 3037 3036 3035 3034 3035 3036 3036 3036 3035 3034 3033 3034 3034 3034 3034 3034 3033 3032 3032 3031 3030 3030 3030 3030 3031 3031 3031 3031 3031 3031 3031 3031 3031 3030 3028 3028 3028 3028 3028 3028 3028 3028 3028 3028 3028 3028 3028 3029 3029 3029 3028 3028 3028 3028 3028 3028 3029 3028 3028 3027 3027 3027 3027 3027 3027 3027 3026 3026 3025 3025 3025 3025 3025 3025 3025 3025 3025 3024
3040 3040 3038 3038 3038 3037 3036 3036 3035 3034 3034 3034 3034 3034 3034 3033 3032 3032 3032 3032 3032 3032 3032 3031 3030 3030 3029 3028 3027 3027 3026 3026 3026 3026 3026 3026 3026 3026 3026 3026 3026 3026 3024 3024 3025 3024 3024 3024 3024 3024 3024 3025 3024 3024 3024 3024 3024 3024 3023 3023 3023 3023 3023 3023 3023 3023 3022 3022 3021 3021 3022 3022 3022 3021 3020 3019 3018 3018 3018 3018 3018 3019 3019 3019 3019 3019
3039 3038 3037 3037 3037 3036 3035 3034 3034 3034 3034 3034 3033 3032 3032 3031 3031 3031 3030 3029 3029 3029 3028 3027 3026 3026 3026 3025 3024 3023 3023 3023 3023 3023 3022 3022 3022 3021 3021 3021 3021 3021 3021 3021 3021 3020 3020 3020 3020 3019 3019 3020 3020 3019 3019 3019 3019 3018 3018 3018 3018 3017 3017 3017 3017 3016 3016 3015 3015 3015 3016 3016 3015 3015 3014 3013 3012 3012 3012 3012 3012 3012 3012 3013 3014 3014
3037 3037 3037 3036 3035 3034 3034 3033 3033 3033 3033 3032 3031 3031 3030 3030 3030 3029 3029 3028 3027 3026 3026 3025 3023 3023 3022 3021 3020 3020 3019 3019 3019 3019 3019 3019 3018 3018 3017 3017 3017 3017 3017 3017 3017 3016 3016 3016 3015 3014 3014 3014 3014 3013 3013 3013 3013 3012 3012 3012 3011 3011 3010 3009 3009 3008 3008 3008 3009 3009 3009 3008 3008 3007 3007 3007 3007 3006 3006 3006 3007 3007 3007 3008 3009 3009
3035 3034 3035 3034 3034 3033 3032 3032 3032 3031 3030 3030 3029 3029 3028 3028 3028 3027 3026 3025 3024 3022 3021 3021 3019 3018 3018 3018 3017 3016 3016 3015 3015 3015 3015 3015 3014 3014 3014 3013 3012 3013 3013 3013 3013 3011 3011 3010 3009 3009 3009 3009 3008 3008 3008 3008 3007 3007 3006 3006 3005 3004 3003 3002 3001 3000 3001 3002 3002 3002 3002 3001 3000 3000 3001 3001 3001 3001 3000 3001 3002 3002 3002 3003 3004 3005
3034 3032 3033 3033 3033 3031 3030 3030 3030 3029 3028 3028 3027 3026 3026 3025 3024 3023 3022 3020 3019 3017 3016 3016 3015 3014 3014 3014 3013 3012 3011 3011 3011 3010 3010 3010 3009 3009 3009 3009 3009 3009 3008 3008 3008 3006 3005 3005 3004 3004 3004 3003 3003 3003 3003 3003 3002 3002 3001 3001 3000 2999 2997 2995 2995 2995 2995 2995 2995 2995 2995 2995 2994 2993 2994 2995 2995 2995 2995 2996 2997 2997 2998 2999 3000 3000
3032 3031 3031 3031 3030 3029 3029 3029 3027 3025 3024 3025 3025 3024 3023 3022 3020 3018 3017 3015 3014 3013 3012 3011 3011 3010 3009 3009 3008 3007 3006 3006 3006 3006 3005 3005 3005 3004 3004 3004 3004 3003 3002 3002 3002 3000 3000 3000 3000 2999 2999 2999 2999 2999 2999 2998 2998 2997 2995 2995 2995 2993 2991 2990 2990 2990 2989 2989 2988 2988 2988 2988 2987 2987 2987 2987 2988 2989 2990 2991 2991 2993 2994 2995 2996 2997
3031 3030 3030 3029 3028 3027 3027 3026 3025 3022 3021 3022 3021 3020 3018 3017 3015 3013 3012 3011 3010 3008 3007 3006 3006 3005 3004 3003 3003 3002 3000 2999 3000 3000 3000 2999 3000 2999 2998 2998 2997 2997 2997 2996 2996 2995 2995 2995 2995 2995 2995 2995 2995 2995 2995 2994 2993 2991 2990 2990 2989 2987 2986 2986 2985 2984 2983 2982 2982 2981 2981 2981 2980 2980 2980 2981 2982 2984 2985 2986 2987 2989 2991 2992 2993 2995
3029 3028 3028 3027 3026 3025 3024 3023 3022 3020 3018 3018 3017 3015 3014 3012 3011 3009 3008 3006 3005 3004 3003 3002 3000 2999 2999 2998 2997 2996 2995 2994 2994 2993 2993 2993 2993 2993 2993 2992 2992 2991 2992 2992 2991 2991 2991 2991 2991 2991 2990 2990 2991 2990 2990 2990 2988 2986 2985 2984 2983 2983 2982 2981 2979 2978 2977 2976 2975 2975 2974 2974 2973 2973 2974 2975 2977 2978 2980 2982 2984 2986 2988 2989 2991 2993